User: anonymous   Login
Location: Ostrava
(49.8330°N, 18.2830°E)
Time: 04:52:08
(UTC+01:00)
Language:

Cosmos 2221 - Orbit

View from above orbital plane
View from above orbital plane
View from above satellite
View from above satellite

Ground track
Ground track

The orbit data is extracted from the following two-line orbital elements,

1 22236U 92080A   16343.18219004  .00000260  00000-0  25978-4 0  9999
2 22236  82.5096 239.5991 0015264 274.5609  85.3864 14.87508674298920
Epoch (UTC): 08 December 2016 04:22:21
Eccentricity: 0.0015264
inclination: 82.5096°
perigee height: 595 km
apogee height: 616 km
right ascension of ascending node: 239.5991°
argument of perigee: 274.5609°
revolutions per day: 14.87508674
mean anomaly at epoch: 85.3864°
orbit number at epoch: 29892

The dashed part of the orbit path shows where the satellite is in the earth's shadow,  

DLR